Tracking 34085 objects as of 13-May-2026
HD Live streaming from Space Station
objects crossing your sky now

FREGAT R/B

Track FREGAT R/B now!
10-day predictions


NORAD ID: 68537
Int'l Code: 2026-061S
Perigee: 205.1 km
Apogee: 225.9 km
Inclination: 82.3 °
Period: 88.7 minutes
Semi major axis: 6586 km
RCS: Unknown
Launch date: March 23, 2026
Source: Commonwealth of Independent States (former USSR) (CIS)
Launch site: PLESETSK MISSILE AND SPACE COMPLEX (PKMTR)

Note: This is a ROCKET BODY
Your satellite tracking list
Your tracking list is empty




NASA's NSSDC Master Catalog

Two Line Element Set (TLE):
1 68537U 26061S   26132.93477215  .01255076 -11851-5  46781-3 0  9993
2 68537  82.2989  50.9585 0015775 208.7843 151.2579 16.24144821  8032
Source of the keplerian elements: AFSPC